Date String (YYYY-MM-DD hh:mm:ss) UTC,Instrument flags,Ambient pressure (hPa),Sample flow (lpm),Bypass flow (lpm),Sample temperature (°C),Ambient temperature (°C),ASC tube jacket temperature (°C),LED temperature (°C),Box temperature (°C),Sample RH (%),Span deviation,Mass concentration (μg/m³),Mass concentration (μg/m³),Mass concentration (μg/m³)
DateTimeUTC,F1_M11,P_M11,Q1_M11,Q2_M11,T1_M11,T2_M11,T3_M11,T4_M11,T5_M11,U1_M11,ZSPAN_M11,X0_M11,X2_M11,X1_M11
2022-02-01 14:00:00,,0822.8,5.01,0.00,21.2,22.0,00.0,30.2,23.0,07.8,0000.0,0009.84,0002.49,0000.73
2022-02-01 14:01:00,,0822.8,5.00,0.00,21.3,22.4,00.0,30.2,23.2,07.8,0000.0,0010.01,0002.51,0000.74
2022-02-01 14:02:00,,0822.7,4.99,0.00,21.4,22.1,00.0,30.2,23.1,07.8,0000.0,0009.96,0002.56,0000.73
2022-02-01 14:03:00,,0822.8,5.00,0.00,21.3,21.7,00.0,30.2,23.0,07.8,0000.0,0009.64,0002.61,0000.74
2022-02-01 14:04:00,,0822.8,5.00,0.00,21.2,21.3,00.0,30.2,22.8,07.8,0000.0,0010.38,0002.60,0000.75
2022-02-01 14:05:00,,0822.8,4.99,0.00,21.2,21.0,00.0,30.2,22.7,07.9,0000.0,0010.11,0002.56,0000.76
2022-02-01 14:06:00,,0822.9,5.01,0.00,21.1,20.7,00.0,30.2,22.5,07.9,0000.0,0010.22,0002.56,0000.77
2022-02-01 14:07:00,,0823.0,5.00,0.00,21.0,20.5,00.0,30.2,22.5,07.9,0000.0,0010.23,0002.55,0000.77
2022-02-01 14:08:00,,0823.0,5.00,0.00,21.0,20.2,00.0,30.2,22.5,08.0,0000.0,0010.06,0002.48,0000.78
2022-02-01 14:09:00,,0823.0,4.99,0.00,21.0,20.5,00.0,30.1,22.5,08.0,0000.0,0009.26,0002.37,0000.78
2022-02-01 14:10:00,,0823.0,4.99,0.00,21.1,21.5,00.0,30.2,22.9,07.9,0000.0,0009.33,0002.39,0000.79
2022-02-01 14:11:00,,0823.0,5.01,0.00,21.3,22.4,00.0,30.2,23.2,07.8,0000.0,0010.23,0002.37,0000.78
2022-02-01 14:12:00,,0823.0,5.00,0.00,21.4,22.5,00.0,30.3,23.3,07.8,0000.0,0010.15,0002.35,0000.77
2022-02-01 14:13:00,,0823.0,4.99,0.00,21.5,22.1,00.0,30.3,23.2,07.8,0000.0,0010.66,0002.24,0000.76
2022-02-01 14:14:00,,0822.9,5.01,0.00,21.4,21.8,00.0,30.3,23.1,07.8,0000.0,0010.92,0002.15,0000.74
2022-02-01 14:15:00,,0822.9,5.00,0.00,21.4,21.4,00.0,30.3,23.0,07.8,0000.0,0009.76,0002.11,0000.73
2022-02-01 14:16:00,,0822.9,5.00,0.00,21.3,21.2,00.0,30.3,22.9,07.8,0000.0,0009.83,0002.13,0000.74
2022-02-01 14:17:00,,0823.0,5.00,0.00,21.3,21.0,00.0,30.3,22.9,07.8,0000.0,0009.27,0002.10,0000.74
2022-02-01 14:18:00,,0822.9,5.00,0.00,21.3,20.8,00.0,30.3,22.8,07.8,0000.0,0009.47,0002.14,0000.77
2022-02-01 14:19:00,,0823.0,5.00,0.00,21.2,20.7,00.0,30.3,22.8,07.9,0000.0,0009.67,0002.25,0000.79
2022-02-01 14:20:00,,0822.9,5.01,0.00,21.2,20.5,00.0,30.3,22.7,07.9,0000.0,0009.67,0002.29,0000.81
2022-02-01 14:21:00,,0822.9,4.99,0.00,21.1,20.4,00.0,30.2,22.6,07.9,0000.0,0009.29,0002.23,0000.84
2022-02-01 14:22:00,,0823.0,4.99,0.00,21.1,20.4,00.0,30.2,22.6,07.9,0000.0,0008.43,0002.23,0000.86
2022-02-01 14:23:00,,0822.9,5.01,0.00,21.2,21.2,00.0,30.2,22.9,07.9,0000.0,0009.26,0002.15,0000.86
2022-02-01 14:24:00,,0823.0,5.00,0.00,21.3,22.3,00.0,30.3,23.2,07.8,0000.0,0008.89,0002.17,0000.88
2022-02-01 14:25:00,,0823.0,5.00,0.00,21.5,22.7,00.0,30.3,23.4,07.8,0000.0,0008.56,0002.22,0000.88
2022-02-01 14:26:00,,0823.0,5.00,0.00,21.5,22.4,00.0,30.4,23.4,07.8,0000.0,0008.57,0002.22,0000.89
2022-02-01 14:27:00,,0823.0,5.01,0.00,21.5,22.0,00.0,30.4,23.3,07.8,0000.0,0009.61,0002.27,0000.90
2022-02-01 14:28:00,,0823.0,5.00,0.00,21.5,21.7,00.0,30.4,23.2,07.8,0000.0,0009.92,0002.27,0000.90
2022-02-01 14:29:00,,0823.0,5.00,0.00,21.5,21.4,00.0,30.4,23.1,07.9,0000.0,0010.20,0002.28,0000.88
2022-02-01 14:30:00,,0823.0,5.00,0.00,21.4,21.2,00.0,30.4,23.1,07.9,0000.0,0010.56,0002.23,0000.85
2022-02-01 14:31:00,,0823.1,5.00,0.00,21.4,21.0,00.0,30.4,23.0,07.9,0000.0,0010.57,0002.23,0000.84
2022-02-01 14:32:00,,0823.0,5.00,0.00,21.4,20.9,00.0,30.4,23.0,08.0,0000.0,0010.79,0002.28,0000.82
2022-02-01 14:33:00,,0823.0,5.00,0.00,21.3,20.7,00.0,30.4,22.9,08.0,0000.0,0011.34,0002.31,0000.79
2022-02-01 14:34:00,,0823.1,5.02,0.00,21.3,20.6,00.0,30.3,22.9,08.0,0000.0,0010.95,0002.34,0000.79
2022-02-01 14:35:00,,0823.0,4.99,0.00,21.3,20.5,00.0,30.3,22.8,08.0,0000.0,0010.42,0002.36,0000.79
2022-02-01 14:36:00,,0823.0,4.99,0.00,21.2,20.4,00.0,30.3,22.7,08.1,0000.0,0010.87,0002.40,0000.79
2022-02-01 14:37:00,,0823.1,4.99,0.00,21.2,20.9,00.0,30.3,22.8,08.1,0000.0,0011.90,0002.50,0000.80
2022-02-01 14:38:00,,0823.1,5.00,0.00,21.4,21.9,00.0,30.4,23.1,08.0,0000.0,0011.10,0002.44,0000.79
2022-02-01 14:39:00,,0823.1,5.00,0.00,21.5,22.7,00.0,30.4,23.4,07.9,0000.0,0011.89,0002.47,0000.80
2022-02-01 14:40:00,,0823.1,4.99,0.00,21.6,22.5,00.0,30.4,23.5,07.8,0000.0,0012.72,0002.46,0000.80
2022-02-01 14:41:00,,0823.1,5.01,0.00,21.6,22.1,00.0,30.4,23.4,07.9,0000.0,0012.69,0002.42,0000.80
2022-02-01 14:42:00,,0823.1,5.00,0.00,21.6,21.7,00.0,30.4,23.2,07.9,0000.0,0012.58,0002.43,0000.80
2022-02-01 14:43:00,,0823.1,5.00,0.00,21.5,21.4,00.0,30.4,23.1,07.9,0000.0,0012.58,0002.45,0000.80
2022-02-01 14:44:00,,0823.1,4.99,0.00,21.5,21.2,00.0,30.4,23.0,08.0,0000.0,0012.74,0002.42,0000.80
2022-02-01 14:45:00,,0823.1,5.00,0.00,21.4,20.9,00.0,30.4,22.9,08.0,0000.0,0012.42,0002.46,0000.79
2022-02-01 14:46:00,,0823.1,5.01,0.00,21.3,20.8,00.0,30.4,22.8,08.0,0000.0,0013.25,0002.54,0000.79
2022-02-01 14:47:00,,0823.1,5.00,0.00,21.3,20.6,00.0,30.4,22.7,08.0,0000.0,0013.38,0002.51,0000.79
2022-02-01 14:48:00,,0823.1,4.99,0.00,21.2,20.5,00.0,30.3,22.7,08.1,0000.0,0012.63,0002.44,0000.80
2022-02-01 14:49:00,,0823.1,5.01,0.00,21.3,21.2,00.0,30.4,22.9,08.0,0000.0,0012.58,0002.40,0000.80
2022-02-01 14:50:00,,0823.2,4.99,0.00,21.4,22.1,00.0,30.4,23.2,08.0,0000.0,0011.61,0002.45,0000.80
2022-02-01 14:51:00,,0823.3,5.01,0.00,21.6,22.6,00.0,30.4,23.5,08.0,0000.0,0010.91,0002.46,0000.80
2022-02-01 14:52:00,,0823.2,4.99,0.00,21.6,22.3,00.0,30.5,23.4,08.0,0000.0,0010.68,0002.48,0000.81
2022-02-01 14:53:00,,0823.2,5.01,0.00,21.6,21.9,00.0,30.5,23.3,08.0,0000.0,0011.24,0002.47,0000.81
2022-02-01 14:54:00,,0823.2,5.00,0.00,21.5,21.6,00.0,30.5,23.1,08.0,0000.0,0012.11,0002.43,0000.79
2022-02-01 14:55:00,,0823.2,5.00,0.00,21.5,21.3,00.0,30.5,23.0,08.0,0000.0,0011.60,0002.43,0000.80
2022-02-01 14:56:00,,0823.1,4.99,0.00,21.4,21.0,00.0,30.4,22.9,08.1,0000.0,0011.67,0002.33,0000.81
2022-02-01 14:57:00,,0823.2,5.02,0.00,21.3,20.8,00.0,30.4,22.8,08.1,0000.0,0011.93,0002.28,0000.82
2022-02-01 14:58:00,,0823.2,5.00,0.00,21.3,20.6,00.0,30.4,22.7,08.1,0000.0,0011.95,0002.29,0000.83
2022-02-01 14:59:00,,0823.3,5.01,0.00,21.2,20.4,00.0,30.4,22.6,08.2,0000.0,0011.43,0002.28,0000.83
